Location: Cran-Gévrier
(45.9039°N, 6.1012°E)
Time: 05:21:27
(UTC+00:00)

Lacrosse 5 - Pass Details

Date: 09 February 2023
Orbit: 714 x 724 km, 57.0° (Epoch: 09 March)

Event Time Altitude Azimuth Distance (km) Brightness Sun altitude
Rises 20:01:12 0° 301° (WNW) 3,143 6.2 -33.1°
Reaches altitude 10° 20:03:59 10° 315° (NW) 2,221 5.0 -33.6°
Enters shadow 20:06:18 20° 338° (NNW) 1,629 4.0 -33.9°
